weather.gov     
National Weather Service

Terminal Aerodrome Forecast
NWS Homepage
This page is being discontinued on March 12, 2014.
The same data is available at this site. Please update your bookmarks.
Thank you, and we apologize for the inconvenience.
Please send an email to SR-SRH.Webmaster@noaa.gov with any concerns.


Current Version
Previous Version:    01  02  03  04  05  06  07  08  09  10  11  12  13  14  15  16  17  18  19  20  21  22  23  24  25  26  27  28  29  30  
   31  32  33  34  35  
[Printable]
966
FTUS45 KRIW 242000 AAB
TAFJAC
TAF AMD
KJAC 242009Z 2420/2518 21018G23KT P6SM VCSH OVC040
      TEMPO 2420/2423 5SM -SHRASN SCT012 OVC030
     FM250200 19010KT P6SM VCSH BKN035
     FM251100 VRB06KT 4SM -SN SCT010 OVC025
     FM251600 VRB06KT 5SM -RASN SCT015 OVC030
      AMD LTD TO CLD VIS AND WIND=


U.S. Dept. of Commerce
NOAA National Weather Service
1325 East West Highway
Silver Spring, MD 20910
E-mail: w-nws.webmaster@noaa.gov
Page last modified: May 16, 2007
NATIONAL WEATHER SERVICE: for Safety, for Work, for Fun - FOR LIFE